[[{"header":{"parameterUnit":"m.s-1","parameterCategory":1,"la1":30.2991,"la2":30.254,"lo1":-89.0895,"lo2":-89.0444,"dy":0.0017,"dx":0.0017,"nx":28,"ny":28,"refTime":"2024-04-03T09:00:00:Z","depth":0,"parameterNumber":2,"parameterNumberName":"U-component_of_WINDS"},"data":[0,0,0,0,0,0,0,0,0,0,0,0,0,0,0,0,0,0,0,0,0,0,0,0,0,0,0,0,0,0,0,0,0,0,0,0,0,0,0,0,0,0,0,0,0,0,0,0,0,0,0,0,0,0,0,0,0,0,4.5808,4.5809,0,4.5849,4.585,4.585,4.5808,4.5806,4.5805,4.5803,4.5843,4.5846,4.5848,0,0,0,0,0,0,0,0,0,0,0,0,0,4.5694,4.5696,4.5808,4.5809,4.5809,4.5849,4.585,4.585,4.5808,4.5806,4.5804,4.5802,4.5843,4.5846,4.5849,0,0,0,0,0,0,0,0,0,0,0,0,0,4.574,4.5697,4.5808,4.5793,4.5792,4.5849,4.585,4.585,4.5809,4.5806,4.5804,4.5801,4.5841,4.5845,4.5849,4.5922,0,0,4.5861,4.5863,0,0,0,0,0,0,0,0,4.5738,4.5744,4.5795,4.5794,4.5793,4.5821,4.5824,4.5874,4.5809,4.5802,4.5803,4.58,4.5838,4.5842,4.5855,4.5924,4.5926,4.5861,4.5864,4.5865,4.5866,0,0,0,0,0,0,0,4.5734,4.5742,4.5824,4.5796,4.5795,4.5784,4.5788,4.5833,4.5833,4.5803,4.58,4.5805,4.5837,4.5851,4.5855,4.5926,4.5861,4.5865,4.5867,4.5869,4.606,4.6063,0,0,0,0,0,0,4.5733,4.574,4.5823,4.5826,4.5759,4.5789,4.5793,4.5815,4.5833,4.5833,4.5807,4.5803,4.5846,4.5851,4.5857,4.5945,4.5865,4.5869,4.5871,4.6058,4.6061,4.6064,0,0,0,0,0,0,4.5731,4.5741,4.5821,4.5782,4.5792,4.5793,4.5818,4.5817,4.5831,4.5836,4.5836,4.5822,4.5844,4.5851,4.5907,4.5946,4.5871,4.5874,4.6054,4.6059,4.6062,4.6121,0,0,0,0,0,0,4.5728,4.574,4.5768,4.5783,4.5794,4.5871,4.582,4.5819,4.5838,4.5833,4.585,4.585,4.5843,4.5901,4.5911,4.595,4.5877,4.6051,4.6056,4.6061,4.6116,4.6127,4.6136,0,0,0,0,0,4.5724,4.5782,4.5769,4.578,4.5828,4.5873,4.5879,4.587,4.5841,4.5869,4.5873,4.585,4.594,4.5907,4.5918,4.5958,4.6048,4.6055,4.6061,4.6111,4.6125,4.6136,0,0,0,0,0,0,4.5769,4.5783,4.577,4.5834,4.5853,4.5866,4.5901,4.5884,4.5911,4.5905,4.5892,4.5896,4.5955,4.5962,4.5926,4.6031,4.599,4.5998,4.6024,4.6037,4.6047,4.6044,4.5881,0,0,0,0,0,4.5787,4.5823,4.5833,4.5889,4.59,4.5899,4.5918,4.591,4.5928,4.5935,4.5943,4.5962,4.5995,4.6016,4.6047,4.6117,4.6121,4.615,4.6161,4.6169,4.6176,4.6216,4.6229,4.6084,4.6084,4.6084,0,0,4.5824,4.5836,4.5859,4.5899,4.5912,4.595,4.5906,4.5946,4.5974,4.5941,4.5995,4.6002,4.6022,4.6086,4.6114,4.6093,4.6218,4.6177,4.6183,4.6186,4.6224,4.6237,4.625,4.6089,4.6088,4.6087,0,0,4.591,4.5923,4.5972,4.5987,4.6009,4.6008,4.602,4.6037,4.604,4.6094,4.6071,4.6104,4.616,4.6176,4.6192,4.6288,4.6268,4.6298,4.6351,4.639,4.6401,4.6411,4.6447,4.6459,4.6305,4.6306,4.6306,0,4.5953,4.6008,4.5999,4.6043,4.6061,4.6035,4.6085,4.61,4.613,4.6144,4.6121,4.6193,4.6204,4.6273,4.6296,4.6309,4.6323,4.6295,4.6401,4.6411,4.642,4.6453,4.6466,4.6309,4.6309,4.6308,4.6308,0,4.6061,4.61,4.6137,4.6169,4.6192,4.6238,4.6236,4.6261,4.6251,4.6254,4.631,4.6323,4.6357,4.6373,4.6363,4.644,4.6427,4.6403,4.636,4.6437,4.6469,4.6481,4.6314,4.6313,4.6312,4.6311,0,0,4.6174,4.6203,4.6216,4.6231,4.6255,4.6285,4.6331,4.6365,4.6387,4.641,4.6449,4.6499,4.6477,4.6495,4.6487,4.6521,4.6598,4.6492,4.6493,4.6512,4.6686,4.6704,4.6719,4.6585,4.6588,4.659,4.6684,0,4.6262,4.6343,4.6337,4.6413,4.645,4.6427,4.6468,4.6487,4.6491,4.6524,4.6528,4.6564,4.6532,4.6543,4.6576,4.6581,4.6632,4.6575,4.6621,4.6623,4.6617,4.6735,4.6754,4.6842,4.6696,4.6698,4.67,0,4.6374,4.6403,4.6483,4.6503,4.6519,4.6555,4.6587,4.6618,4.664,4.6641,4.6663,4.665,4.6697,4.6655,4.6721,4.6682,4.6701,4.6707,4.671,4.6714,4.6666,4.6742,4.687,4.6884,4.6719,4.6717,4.6716,0,4.6451,4.6509,4.6565,4.6578,4.6603,4.663,4.6641,4.6661,4.6682,4.6711,4.6725,4.6758,4.6776,4.6802,4.6799,4.6768,4.6866,4.6823,4.6869,4.6869,4.6889,4.6888,4.7023,4.6902,4.6902,4.6902,4.6901,0,4.6549,4.6599,4.66,4.6634,4.6691,4.6684,4.674,4.6748,4.6767,4.6803,4.6785,4.6819,4.6813,4.6848,4.6846,4.6901,4.6909,4.6912,4.691,4.6913,4.6913,4.6925,4.6919,4.6905,4.6904,4.6904,4.6903,0,4.6643,4.6645,4.6705,4.6725,4.6731,4.6772,4.6789,4.6822,4.6826,4.6872,4.6882,4.6888,4.6928,4.6928,4.6973,4.6972,4.7041,4.7032,4.7033,4.7032,4.7078,4.7073,4.7225,4.7244,4.7111,4.7112,4.7113,0,4.6705,4.6744,4.6768,4.6792,4.6806,4.6843,4.6866,4.6862,4.6886,4.6916,4.6946,4.6985,4.7015,4.708,4.7089,4.7124,4.7116,4.7167,4.7121,4.7124,4.7118,4.7116,4.712,4.7176,4.7177,4.7178,4.7179,0,4.6816,4.6816,4.685,4.6885,4.6913,4.694,4.6965,4.6986,4.6984,4.7013,4.7054,4.7078,4.7126,4.7165,4.72,4.7211,4.7196,4.7194,4.7207,4.721,4.7209,4.7211,4.7058,4.719,4.7189,4.7188,4.7188,4.7187,4.6897,4.6931,4.6954,4.6993,4.7012,4.7036,4.7069,4.7078,4.7113,4.7152,4.7147,4.7194,4.7217,4.7262,4.7277,4.7314,4.7296,4.7314,4.7319,4.7323,4.7329,4.7204,4.732,4.732,4.7319,4.7319,4.7319,0,4.7007,4.7022,4.7058,4.7095,4.7126,4.711,4.7137,4.7164,4.7206,4.7229,4.726,4.7309,4.7348,4.736,4.7398,4.7425,4.7419,4.7435,4.7432,4.7436,4.7342,4.7328,4.7439,4.7439,4.7439,4.7439,4.7439,4.7439,4.7069,4.7126,4.7129,4.7196,4.721,4.7257,4.7274,4.7297,4.7316,4.7371,4.7404,4.7412,4.7432,4.7471,4.7506,4.7509,4.7523,4.7543,4.7542,4.7454,4.7442,4.7431,4.7417,4.7546,4.7546,4.7633,4.7634,4.7635]},{"header":{"parameterUnit":"m.s-1","parameterCategory":1,"la1":30.2991,"la2":30.254,"lo1":-89.0895,"lo2":-89.0444,"dy":0.0017,"dx":0.0017,"nx":28,"ny":28,"refTime":"2024-04-03T09:00:00:Z","depth":0,"parameterNumber":3,"parameterNumberName":"V-component_of_WINDS"},"data":[0,0,0,0,0,0,0,0,0,0,0,0,0,0,0,0,0,0,0,0,0,0,0,0,0,0,0,0,0,0,0,0,0,0,0,0,0,0,0,0,0,0,0,0,0,0,0,0,0,0,0,0,0,0,0,0,0,0,-6.4341,-6.4343,0,-6.4489,-6.449,-6.4492,-6.4485,-6.4483,-6.4481,-6.4479,-6.4626,-6.4631,-6.4637,0,0,0,0,0,0,0,0,0,0,0,0,0,-6.4051,-6.4056,-6.4341,-6.4343,-6.4345,-6.4488,-6.449,-6.4492,-6.4485,-6.4483,-6.448,-6.4478,-6.4624,-6.4631,-6.4638,0,0,0,0,0,0,0,0,0,0,0,0,0,-6.4185,-6.4058,-6.4341,-6.4358,-6.4361,-6.4488,-6.449,-6.4493,-6.4486,-6.4482,-6.4479,-6.4476,-6.4621,-6.463,-6.4639,-6.4756,0,0,-6.4666,-6.4669,0,0,0,0,0,0,0,0,-6.4177,-6.4196,-6.4354,-6.4357,-6.4361,-6.4465,-6.4442,-6.4581,-6.4486,-6.4438,-6.4479,-6.4475,-6.4575,-6.4587,-6.4621,-6.4763,-6.4769,-6.4666,-6.4672,-6.4675,-6.4678,0,0,0,0,0,0,0,-6.4168,-6.4189,-6.4399,-6.4356,-6.4361,-6.4358,-6.4374,-6.4468,-6.4522,-6.4442,-6.4442,-6.446,-6.4576,-6.4613,-6.4625,-6.4771,-6.4666,-6.4674,-6.4679,-6.4683,-6.5018,-6.5021,0,0,0,0,0,0,-6.4155,-6.4182,-6.4394,-6.4404,-6.426,-6.4366,-6.4384,-6.4435,-6.4521,-6.4531,-6.4462,-6.4459,-6.4599,-6.4615,-6.463,-6.4774,-6.4675,-6.4684,-6.4689,-6.5014,-6.5019,-6.5023,0,0,0,0,0,0,-6.4149,-6.4174,-6.4389,-6.4293,-6.432,-6.4374,-6.4432,-6.4439,-6.4477,-6.4536,-6.4546,-6.4491,-6.4598,-6.4618,-6.4725,-6.4779,-6.4688,-6.4696,-6.501,-6.5016,-6.5021,-6.5063,0,0,0,0,0,0,-6.4141,-6.4172,-6.4218,-6.4294,-6.4325,-6.4482,-6.4435,-6.4445,-6.4492,-6.4489,-6.4565,-6.4575,-6.4597,-6.4712,-6.4734,-6.479,-6.4702,-6.5005,-6.5012,-6.5019,-6.5057,-6.5069,-6.5079,0,0,0,0,0,-6.4131,-6.4222,-6.422,-6.4246,-6.4383,-6.4485,-6.4503,-6.4527,-6.4497,-6.4543,-6.4581,-6.4572,-6.477,-6.4723,-6.4748,-6.4807,-6.5002,-6.501,-6.5018,-6.5052,-6.5067,-6.5079,0,0,0,0,0,0,-6.4149,-6.4233,-6.4231,-6.435,-6.4411,-6.4484,-6.4543,-6.4542,-6.4612,-6.4606,-6.4632,-6.4649,-6.4758,-6.4793,-6.474,-6.4926,-6.4882,-6.4895,-6.4899,-6.4913,-6.4924,-6.4914,-6.471,0,0,0,0,0,-6.4167,-6.4244,-6.4313,-6.4411,-6.4442,-6.4487,-6.4533,-6.4547,-6.461,-6.4635,-6.4682,-6.4743,-6.4819,-6.4868,-6.4941,-6.5062,-6.5079,-6.5115,-6.5126,-6.5135,-6.5146,-6.5214,-6.5232,-6.5049,-6.5049,-6.5049,0,0,-6.4205,-6.426,-6.4307,-6.4417,-6.4465,-6.4544,-6.4509,-6.4593,-6.4652,-6.4647,-6.4753,-6.4789,-6.4859,-6.4975,-6.5028,-6.5007,-6.52,-6.5145,-6.5152,-6.5159,-6.5225,-6.5242,-6.5257,-6.5055,-6.5054,-6.5053,0,0,-6.4315,-6.4364,-6.4453,-6.4503,-6.4578,-6.4608,-6.4629,-6.4703,-6.4728,-6.4835,-6.4834,-6.4903,-6.5033,-6.5083,-6.5126,-6.5257,-6.5252,-6.528,-6.5339,-6.5405,-6.542,-6.5433,-6.548,-6.5497,-6.5291,-6.5291,-6.5291,0,-6.4352,-6.4472,-6.4498,-6.4584,-6.4633,-6.4635,-6.4725,-6.4771,-6.4866,-6.4899,-6.4875,-6.504,-6.5087,-6.5215,-6.5247,-6.5281,-6.5307,-6.5272,-6.5416,-6.5429,-6.5441,-6.5487,-6.5505,-6.5294,-6.5294,-6.5294,-6.5293,0,-6.4515,-6.4598,-6.466,-6.4754,-6.481,-6.4897,-6.4936,-6.4989,-6.4998,-6.5031,-6.514,-6.5197,-6.5282,-6.5313,-6.5322,-6.5444,-6.5429,-6.541,-6.5367,-6.5461,-6.5505,-6.5523,-6.5299,-6.5298,-6.5297,-6.5296,0,0,-6.4639,-6.4748,-6.477,-6.4814,-6.4898,-6.4962,-6.505,-6.5135,-6.5181,-6.5246,-6.5321,-6.5432,-6.5416,-6.5464,-6.5479,-6.5537,-6.564,-6.5512,-6.5514,-6.5534,-6.5778,-6.5792,-6.5812,-6.5637,-6.564,-6.5643,-6.5772,0,-6.4758,-6.4916,-6.4943,-6.508,-6.5158,-6.5162,-6.5238,-6.5298,-6.5331,-6.5401,-6.5436,-6.5516,-6.5488,-6.5518,-6.5575,-6.5615,-6.5689,-6.5606,-6.5706,-6.5709,-6.5689,-6.5834,-6.5849,-6.5968,-6.5789,-6.5792,-6.5794,0,-6.4918,-6.499,-6.5136,-6.5212,-6.5245,-6.5314,-6.5395,-6.5462,-6.553,-6.555,-6.5606,-6.5614,-6.5705,-6.5658,-6.5784,-6.5727,-6.577,-6.5796,-6.5801,-6.5812,-6.5758,-6.5849,-6.6007,-6.6025,-6.5821,-6.5819,-6.5817,0,-6.4996,-6.5129,-6.5234,-6.5271,-6.5361,-6.5409,-6.5449,-6.5514,-6.5564,-6.5635,-6.5668,-6.5748,-6.5792,-6.5853,-6.5883,-6.5846,-6.6008,-6.5963,-6.6027,-6.6026,-6.6061,-6.6058,-6.6228,-6.6087,-6.6087,-6.6087,-6.6086,0,-6.5126,-6.5215,-6.527,-6.5335,-6.5435,-6.5466,-6.5564,-6.5602,-6.566,-6.5732,-6.574,-6.5807,-6.5842,-6.5915,-6.5939,-6.604,-6.606,-6.6078,-6.6084,-6.6078,-6.6076,-6.6106,-6.6099,-6.6092,-6.6091,-6.609,-6.6089,0,-6.5229,-6.527,-6.5385,-6.5462,-6.5483,-6.5554,-6.562,-6.5683,-6.5716,-6.5807,-6.583,-6.5882,-6.5968,-6.6004,-6.6109,-6.6125,-6.6242,-6.6241,-6.622,-6.6222,-6.6284,-6.6278,-6.648,-6.6509,-6.6348,-6.635,-6.6351,0,-6.531,-6.538,-6.5465,-6.5515,-6.5556,-6.5636,-6.5688,-6.572,-6.5774,-6.5858,-6.5911,-6.5998,-6.6068,-6.6205,-6.6252,-6.6333,-6.6334,-6.6399,-6.6346,-6.6339,-6.6336,-6.6332,-6.6339,-6.6409,-6.641,-6.6411,-6.6413,0,-6.545,-6.5467,-6.5543,-6.5627,-6.5689,-6.5756,-6.5821,-6.5861,-6.5903,-6.5963,-6.6053,-6.6108,-6.6216,-6.6302,-6.6386,-6.6426,-6.6427,-6.6429,-6.6449,-6.6444,-6.6429,-6.6439,-6.6247,-6.6424,-6.6423,-6.6422,-6.6422,-6.6421,-6.5546,-6.5608,-6.5679,-6.5763,-6.5816,-6.5877,-6.5941,-6.5983,-6.6059,-6.6151,-6.6165,-6.626,-6.6328,-6.6441,-6.6484,-6.6559,-6.6542,-6.657,-6.6577,-6.6584,-6.6589,-6.6417,-6.6574,-6.6574,-6.6574,-6.6573,-6.6573,0,-6.5687,-6.5733,-6.581,-6.5903,-6.5969,-6.5966,-6.6038,-6.6094,-6.6179,-6.6242,-6.6313,-6.6416,-6.6499,-6.6554,-6.6638,-6.6688,-6.669,-6.6709,-6.6706,-6.6715,-6.6598,-6.6573,-6.6705,-6.6705,-6.6705,-6.6705,-6.6705,-6.6705,-6.5768,-6.5874,-6.59,-6.6033,-6.6078,-6.6173,-6.6215,-6.6271,-6.6323,-6.6438,-6.6509,-6.6544,-6.6604,-6.6693,-6.677,-6.6784,-6.6815,-6.6835,-6.6848,-6.6737,-6.6723,-6.671,-6.6687,-6.6841,-6.6841,-6.6959,-6.696,-6.6961]}]]